{"data":{"norad_id":50471,"intl_designator":"2021-132C","name":"ONEWEB-0391","alt_names":[],"object_type":"PAYLOAD","status":"ACTIVE","operator":null,"country":"UK","launch_date":"2021-12-27","launch_site_code":"TYMSC","launch_vehicle":null,"mission":null,"orbit_class":"UNKNOWN","rcs_meters":null,"size_class":null,"mass_kg":null,"dimensions":null,"purposes":["comms"],"wikipedia_slug":null,"has_3d_model":false,"image_url":null,"decayed_at":null,"tle_current":{"epoch":"2026-05-25T02:49:11.231904Z","epoch_age_seconds":73804,"freshness":"FRESH","line1":"1 50471U 21132C   26145.11749111 -.00000011  00000+0 -60390-4 0  9994","line2":"2 50471  87.9153  10.4664 0002422 101.0308 259.1096 13.17650942215048","mean_motion":13.17650942,"eccentricity":0.0002422,"inclination_deg":87.9153,"raan_deg":10.4664,"arg_perigee_deg":101.0308,"mean_anomaly_deg":259.1096,"bstar":-6.039e-5,"rev_number":21504,"period_min":109.28539221581,"perigee_km":1191.8719197592,"apogee_km":1195.5397204212,"semimajor_km":7571.8428200902,"source":"CELESTRAK","updated_at":"2026-05-25T13:38:22.528083Z"}}}